Weather History for Grand Marais Airport, MN

Change the Weather History Date:

Thursday, October 13, 2011

  Actual Average Record
Temperature  
Mean Temperature 50 °F -  
Max Temperature 53 °F 47 °F 62 °F (2003)
Min Temperature 48 °F 33 °F 24 °F (2002)
Degree Days  
Heating Degree Days 14    
Moisture  
Dew Point 48 °F    
Average Humidity 89    
Maximum Humidity 94    
Minimum Humidity 87    
Precipitation  
Precipitation 0.88 in - - ()
Sea Level Pressure  
Sea Level Pressure 29.55 in    
Wind  
Wind Speed 4 mph (ESE)    
Max Wind Speed 10 mph    
Max Gust Speed 22 mph    
Visibility 5 miles    
Events Fog , Rain , Thunderstorm    
Averages and records for this station are not official NWS values.
T = Trace of Precipitation, MM = Missing Value Source: NWS Daily Summary

Daily Weather History Graph

Daily Weather History Graph

Search for Another Location

Airport:

Trip Planner

Search our weather history database for the weather conditions in past years. The results will help you decide how hot, cold, wet, or windy it might be!

Date:

Astronomy

Oct. 13, 2011 Rise Set
Actual Time 7:17 AM CDT 6:17 PM CDT
Civil Twilight 6:46 AM CDT 6:48 PM CDT
Nautical Twilight 6:10 AM CDT 7:24 PM CDT
Astronomical Twilight 5:34 AM CDT 8:00 PM CDT
Moon 6:40 PM CDT (10/13) 9:01 AM CDT (10/13)
Length of Visible Light 12h 02m
Length of Day
11h 00m
Full, 98% of the Moon is Illuminated
Oct 13
Full
Oct 19
Last Quarter
Oct 26
New
Nov 2
First Quarter
Nov 10
Full

Hourly Weather History & Observations

Time (CDT) Temp. Windchill Dew Point Humidity Pressure Visibility Wind Dir Wind Speed Gust Speed Precip Events Conditions
12:13 AM 53.6 °F - 50.0 °F 88% 29.69 in 3.0 mi SSE 10.4 mph 21.9 mph 0.10 in Rain , Thunderstorm Heavy Thunderstorms and Rain
12:33 AM 53.6 °F - 50.0 °F 88% 29.68 in 3.0 mi SE 4.6 mph - 0.17 in Rain Rain
12:55 AM 53.6 °F - 50.0 °F 88% 29.66 in 5.0 mi Calm Calm - 0.20 in Rain , Thunderstorm Light Thunderstorms and Rain
1:14 AM 51.8 °F - 48.2 °F 88% 29.65 in 7.0 mi NE 4.6 mph - N/A   Scattered Clouds
1:33 AM 51.8 °F - 48.2 °F 88% 29.65 in 7.0 mi ENE 3.5 mph - N/A   Scattered Clouds
1:53 AM 51.8 °F - 48.2 °F 88% 29.64 in 10.0 mi Calm Calm - N/A   Scattered Clouds
2:14 AM 51.8 °F - 48.2 °F 88% 29.64 in 7.0 mi Calm Calm - N/A   Mostly Cloudy
2:33 AM 51.8 °F - 48.2 °F 88% 29.64 in 3.0 mi East 4.6 mph - N/A   Overcast
2:53 AM 51.8 °F - 48.2 °F 88% 29.63 in 1.2 mi ESE 4.6 mph - N/A   Overcast
3:14 AM 51.8 °F - 48.2 °F 88% 29.62 in 0.2 mi East 3.5 mph - N/A Rain Light Rain
3:33 AM 51.8 °F - 48.2 °F 88% 29.62 in 0.2 mi ESE 4.6 mph - N/A Fog Fog
3:54 AM 51.8 °F - 48.2 °F 88% 29.61 in 0.2 mi ESE 4.6 mph - N/A Fog Fog
4:13 AM 51.8 °F - 48.2 °F 88% 29.61 in 0.2 mi ESE 4.6 mph - N/A Rain Rain
4:34 AM 51.8 °F - 50.0 °F 94% 29.61 in 0.2 mi ESE 4.6 mph - N/A   Drizzle
5:14 AM 51.8 °F - 50.0 °F 94% 29.61 in 0.2 mi ESE 5.8 mph - N/A   Drizzle
5:33 AM 51.8 °F - 50.0 °F 94% 29.61 in 0.2 mi Calm Calm - N/A Rain Light Rain
5:53 AM 51.8 °F - 48.2 °F 88% 29.60 in 0.2 mi Calm Calm - N/A   Drizzle
6:14 AM 51.8 °F - 48.2 °F 88% 29.60 in 0.2 mi ESE 4.6 mph - N/A   Drizzle
6:34 AM 51.8 °F - 48.2 °F 88% 29.59 in 0.2 mi East 5.8 mph - N/A   Drizzle
6:53 AM 51.8 °F - 48.2 °F 88% 29.59 in 0.2 mi East 3.5 mph - N/A   Drizzle
7:13 AM 51.8 °F - 48.2 °F 88% 29.58 in 0.2 mi Calm Calm - N/A   Drizzle
7:34 AM 51.8 °F - 48.2 °F 88% 29.58 in 0.2 mi East 3.5 mph - 0.02 in Rain Rain
7:53 AM 51.8 °F - 48.2 °F 88% 29.57 in 0.8 mi ESE 3.5 mph - 0.04 in Rain Light Rain
7:55 AM 51.8 °F - 48.2 °F 88% 29.57 in 0.8 mi ESE 4.6 mph - 0.04 in Rain Light Rain
8:33 AM 51.8 °F - 50.0 °F 94% 29.57 in 0.2 mi SSE 4.6 mph - 0.06 in Rain Light Rain
8:55 AM 51.8 °F - 50.0 °F 94% 29.57 in 0.2 mi SE 3.5 mph - 0.07 in Rain Rain
9:14 AM 51.8 °F - 50.0 °F 94% 29.57 in 0.2 mi SE 3.5 mph - 0.01 in Rain Light Rain
9:33 AM 51.8 °F - 50.0 °F 94% 29.56 in 0.5 mi SSE 5.8 mph - 0.01 in Rain Light Rain
9:53 AM 51.8 °F - 50.0 °F 94% 29.55 in 5.0 mi SSE 4.6 mph - 0.03 in Rain Rain
9:55 AM 51.8 °F - 50.0 °F 94% 29.55 in 5.0 mi SSE 3.5 mph - 0.03 in   Drizzle
10:33 AM 51.8 °F - 48.2 °F 88% 29.53 in 7.0 mi SSE 5.8 mph - 0.01 in   Drizzle
10:53 AM 51.8 °F - 48.2 °F 88% 29.54 in 7.0 mi SE 5.8 mph - 0.02 in Rain Light Rain
10:55 AM 51.8 °F - 48.2 °F 88% 29.54 in 7.0 mi SE 8.1 mph - 0.02 in Rain Light Rain
11:13 AM 51.8 °F - 48.2 °F 88% 29.53 in 5.0 mi SE 9.2 mph 17.3 mph 0.04 in Rain Rain
11:33 AM 51.8 °F - 48.2 °F 88% 29.53 in 5.0 mi SE 5.8 mph - 0.06 in Rain Rain
11:53 AM 51.8 °F - 48.2 °F 88% 29.53 in 2.0 mi SE 6.9 mph - 0.09 in Rain Rain
11:55 AM 51.8 °F - 48.2 °F 88% 29.53 in 1.5 mi SE 4.6 mph - 0.09 in Rain Rain
12:13 PM 51.8 °F - 48.2 °F 88% 29.52 in 1.0 mi SE 3.5 mph - 0.03 in Rain Rain
12:33 PM 51.8 °F - 48.2 °F 88% 29.52 in 4.0 mi East 3.5 mph - 0.05 in Rain Light Rain
12:54 PM 51.8 °F - 48.2 °F 88% 29.51 in 5.0 mi Calm Calm - 0.07 in Rain Light Rain
12:55 PM 51.8 °F - 48.2 °F 88% 29.51 in 5.0 mi Calm Calm - 0.07 in Rain Light Rain
1:13 PM 51.8 °F - 48.2 °F 88% 29.50 in 7.0 mi ESE 4.6 mph - 0.02 in Rain Light Rain
1:33 PM 51.8 °F - 48.2 °F 88% 29.49 in 4.0 mi Calm Calm - 0.05 in Rain Rain
1:55 PM 51.8 °F - 48.2 °F 88% 29.49 in 4.0 mi SE 3.5 mph - 0.09 in Rain Rain
2:13 PM 51.8 °F - 48.2 °F 88% 29.49 in 5.0 mi Calm Calm - 0.03 in Rain Rain
2:34 PM 51.8 °F - 48.2 °F 88% 29.48 in 5.0 mi Calm Calm - 0.07 in Rain Rain
2:53 PM 51.8 °F - 48.2 °F 88% 29.48 in 10.0 mi Calm Calm - 0.11 in Rain Rain
2:55 PM 51.8 °F - 48.2 °F 88% 29.48 in 10.0 mi Calm Calm - 0.11 in Rain Rain
3:13 PM 50.0 °F - 46.4 °F 87% 29.48 in 10.0 mi Calm Calm - 0.02 in Rain Rain
3:34 PM 50.0 °F - 46.4 °F 87% 29.48 in 10.0 mi North 4.6 mph - 0.06 in Rain Rain
3:53 PM 50.0 °F - 46.4 °F 87% 29.47 in 10.0 mi WNW 5.8 mph - 0.09 in Rain Light Rain
3:55 PM 50.0 °F - 46.4 °F 87% 29.47 in 10.0 mi NW 4.6 mph - 0.09 in Rain Light Rain
4:13 PM 50.0 °F - 46.4 °F 87% 29.47 in 10.0 mi NNW 5.8 mph - 0.01 in Rain Light Rain
4:34 PM 50.0 °F - 46.4 °F 87% 29.47 in 10.0 mi NW 4.6 mph - 0.02 in Rain Light Rain
4:53 PM 50.0 °F - 46.4 °F 87% 29.46 in 10.0 mi WNW 4.6 mph - 0.03 in Rain Rain
4:55 PM 50.0 °F - 46.4 °F 87% 29.46 in 10.0 mi WNW 5.8 mph - 0.03 in   Drizzle
5:13 PM 50.0 °F - 46.4 °F 87% 29.46 in 10.0 mi NW 5.8 mph - N/A   Drizzle
5:34 PM 48.2 °F - 44.6 °F 87% 29.46 in 10.0 mi WNW 8.1 mph - 0.01 in Rain Rain
5:55 PM 48.2 °F - 44.6 °F 87% 29.46 in 10.0 mi NW 6.9 mph - 0.01 in   Drizzle
6:14 PM 48.2 °F - 44.6 °F 87% 29.46 in 10.0 mi WNW 8.1 mph 16.1 mph 0.01 in   Drizzle
6:34 PM 48.2 °F - 44.6 °F 87% 29.46 in 10.0 mi WNW 10.4 mph 17.3 mph 0.03 in Rain Light Rain
6:53 PM 48.2 °F - 44.6 °F 87% 29.46 in 10.0 mi NW 12.7 mph 23.0 mph 0.05 in Rain Light Rain
6:55 PM 46.4 °F 40.4 °F 44.6 °F 93% 29.46 in 10.0 mi NW 13.8 mph 20.7 mph 0.05 in Rain Light Rain
7:14 PM 46.4 °F 41.1 °F 42.8 °F 87% 29.46 in 10.0 mi NW 11.5 mph 19.6 mph 0.02 in Rain Rain
7:34 PM 46.4 °F 40.7 °F 42.8 °F 87% 29.46 in 10.0 mi NW 12.7 mph 19.6 mph 0.05 in Rain Light Rain
7:55 PM 46.4 °F 40.7 °F 42.8 °F 87% 29.46 in 10.0 mi NW 12.7 mph 17.3 mph 0.07 in Rain Light Rain
8:14 PM 46.4 °F 40.7 °F 42.8 °F 87% 29.46 in 10.0 mi NW 12.7 mph 19.6 mph 0.01 in Rain Light Rain
8:33 PM 46.4 °F 40.4 °F 42.8 °F 87% 29.46 in 10.0 mi NW 13.8 mph 19.6 mph 0.02 in Rain Light Rain
9:13 PM 44.6 °F 38.8 °F 41.0 °F 87% 29.46 in 10.0 mi NW 11.5 mph 23.0 mph N/A Rain Rain
9:33 PM 44.6 °F 38.4 °F 41.0 °F 87% 29.45 in 10.0 mi NW 12.7 mph 21.9 mph N/A   Light Drizzle
9:54 PM 44.6 °F 38.1 °F 41.0 °F 87% 29.45 in 10.0 mi NW 13.8 mph 19.6 mph N/A   Mostly Cloudy
10:13 PM 44.6 °F 38.8 °F 41.0 °F 87% 29.45 in 10.0 mi WNW 11.5 mph 18.4 mph N/A   Mostly Cloudy
10:33 PM 44.6 °F 39.7 °F 41.0 °F 87% 29.45 in 10.0 mi NW 9.2 mph 16.1 mph N/A   Overcast
10:54 PM 44.6 °F 38.1 °F 39.2 °F 81% 29.44 in 10.0 mi NW 13.8 mph 23.0 mph N/A   Overcast
11:13 PM 44.6 °F 38.8 °F 41.0 °F 87% 29.43 in 10.0 mi NW 11.5 mph 18.4 mph N/A   Overcast
11:33 PM 44.6 °F 39.7 °F 39.2 °F 81% 29.43 in 10.0 mi NW 9.2 mph 20.7 mph N/A   Overcast
11:54 PM 44.6 °F 39.2 °F 39.2 °F 81% 29.43 in 10.0 mi NW 10.4 mph 19.6 mph N/A   Overcast